SZN221 VGHS-VQPR

Flight info

Callsign SZN221
Flight time N/A
Altitude 34000
Route TEGAK2 TEGAK DCT SDP/N0440F330 DCT BOGOP BOGOP1A
Aircraft A321/M-SDE3FGHIRWY/LB1

Departure

Time 2026-05-08 11:57
Airport Hazrat Shahjalal International Airport (VGHS)

Arrival

Time N/A
Airport Paro International Airport (VQPR)
Time Latitude Longitude Altitude Speed Heading
2026-05-08 11:10 23.84792 90.40391 30 ft 0 kts 58°
2026-05-08 11:41 23.84786 90.40380 30 ft 4 kts 59°
2026-05-08 11:41 23.84772 90.40354 30 ft 4 kts 62°
2026-05-08 11:41 23.84760 90.40328 30 ft 4 kts 66°
2026-05-08 11:41 23.84751 90.40303 30 ft 2 kts 69°
2026-05-08 11:42 23.84749 90.40298 30 ft 0 kts 69°
2026-05-08 11:45 23.84746 90.40323 30 ft 8 kts 115°
2026-05-08 11:46 23.84668 90.40378 30 ft 19 kts 153°
2026-05-08 11:46 23.84562 90.40445 30 ft 17 kts 141°
2026-05-08 11:46 23.84472 90.40522 30 ft 15 kts 152°
2026-05-08 11:46 23.84385 90.40542 30 ft 12 kts 148°
2026-05-08 11:47 23.84324 90.40597 30 ft 11 kts 141°
2026-05-08 11:47 23.84268 90.40645 30 ft 9 kts 142°
2026-05-08 11:47 23.84221 90.40664 30 ft 6 kts 183°
2026-05-08 11:47 23.84188 90.40646 30 ft 5 kts 219°
2026-05-08 11:48 23.84167 90.40623 30 ft 4 kts 227°
2026-05-08 11:48 23.84146 90.40608 30 ft 3 kts 194°
2026-05-08 11:48 23.84125 90.40613 30 ft 5 kts 158°
2026-05-08 11:48 23.84072 90.40653 30 ft 13 kts 142°
2026-05-08 11:49 23.83979 90.40730 31 ft 20 kts 142°
2026-05-08 11:49 23.83872 90.40818 30 ft 19 kts 143°
2026-05-08 11:49 23.83804 90.40871 31 ft 11 kts 145°
2026-05-08 11:49 23.83737 90.40921 31 ft 12 kts 145°
2026-05-08 11:50 23.83670 90.40973 31 ft 12 kts 144°
2026-05-08 11:50 23.83602 90.41027 31 ft 12 kts 143°
2026-05-08 11:50 23.83535 90.41084 31 ft 12 kts 141°
2026-05-08 11:50 23.83473 90.41112 31 ft 9 kts 195°
2026-05-08 11:51 23.83425 90.41068 30 ft 9 kts 228°
2026-05-08 11:51 23.83386 90.41006 31 ft 10 kts 237°
2026-05-08 11:51 23.83343 90.40940 31 ft 9 kts 233°
2026-05-08 11:51 23.83306 90.40884 31 ft 9 kts 234°
2026-05-08 11:52 23.83279 90.40844 31 ft 0 kts 234°
2026-05-08 11:54 23.83277 90.40842 31 ft 3 kts 233°
2026-05-08 11:54 23.83262 90.40820 30 ft 3 kts 233°
2026-05-08 11:54 23.83250 90.40803 29 ft 2 kts 232°
2026-05-08 11:54 23.83236 90.40782 32 ft 5 kts 234°
2026-05-08 11:55 23.83216 90.40742 32 ft 7 kts 245°
2026-05-08 11:55 23.83225 90.40680 32 ft 10 kts 295°
2026-05-08 11:55 23.83261 90.40630 31 ft 0 kts 317°
2026-05-08 11:56 23.83314 90.40585 31 ft 37 kts 323°
2026-05-08 11:56 23.83722 90.40268 32 ft 104 kts 323°
2026-05-08 11:56 23.84455 90.39683 34 ft 154 kts 323°
2026-05-08 11:56 23.85360 90.38977 437 ft 164 kts 325°
2026-05-08 11:57 23.86310 90.38229 930 ft 172 kts 321°
2026-05-08 11:57 23.87107 90.37220 1452 ft 179 kts 301°
2026-05-08 11:57 23.87623 90.35962 1964 ft 183 kts 291°
2026-05-08 11:57 23.88096 90.34661 2474 ft 185 kts 295°
2026-05-08 11:58 23.88670 90.33391 2923 ft 191 kts 297°
2026-05-08 11:58 23.89312 90.32031 3103 ft 212 kts 298°
2026-05-08 11:58 23.90027 90.30528 3231 ft 234 kts 298°
2026-05-08 11:59 23.91669 90.27081 4100 ft 266 kts 297°
2026-05-08 11:59 23.92629 90.25326 4852 ft 270 kts 302°
2026-05-08 11:59 23.93678 90.23643 5600 ft 273 kts 304°
2026-05-08 11:59 23.94777 90.21949 6378 ft 274 kts 304°
2026-05-08 12:00 23.95888 90.20252 7109 ft 275 kts 304°
2026-05-08 12:00 23.96999 90.18547 7854 ft 276 kts 304°
2026-05-08 12:00 23.98111 90.16831 8609 ft 277 kts 304°
2026-05-08 12:00 23.99222 90.15105 9362 ft 278 kts 304°
2026-05-08 12:01 24.00335 90.13369 10056 ft 280 kts 304°
2026-05-08 12:01 24.01458 90.11612 10697 ft 283 kts 304°
2026-05-08 12:01 24.02605 90.09814 11078 ft 298 kts 303°
2026-05-08 12:01 24.03832 90.07890 11206 ft 319 kts 303°
2026-05-08 12:02 24.05131 90.05853 11552 ft 330 kts 303°
2026-05-08 12:02 24.06455 90.03777 12097 ft 335 kts 303°
2026-05-08 12:02 24.07796 90.01671 12697 ft 339 kts 303°
2026-05-08 12:02 24.09154 89.99545 13299 ft 343 kts 303°
2026-05-08 12:03 24.10530 89.97394 13853 ft 347 kts 303°
2026-05-08 12:03 24.11921 89.95221 14396 ft 349 kts 302°
2026-05-08 12:03 24.13315 89.93034 14953 ft 352 kts 302°
2026-05-08 12:03 24.14716 89.90831 15524 ft 354 kts 302°
2026-05-08 12:04 24.16129 89.88609 16082 ft 356 kts 302°
2026-05-08 12:04 24.17547 89.86380 16635 ft 358 kts 301°
2026-05-08 12:04 24.19060 89.84200 17165 ft 363 kts 309°
2026-05-08 12:04 24.20967 89.82346 17670 ft 371 kts 320°
2026-05-08 12:05 24.23219 89.80910 18172 ft 378 kts 328°
2026-05-08 12:05 24.25559 89.79568 18608 ft 380 kts 327°
2026-05-08 12:05 24.27910 89.78207 19017 ft 383 kts 327°
2026-05-08 12:05 24.30272 89.76834 19432 ft 386 kts 327°
2026-05-08 12:06 24.32650 89.75449 19844 ft 388 kts 327°
2026-05-08 12:06 24.35042 89.74058 20240 ft 390 kts 327°
2026-05-08 12:06 24.37450 89.72660 20623 ft 393 kts 327°
2026-05-08 12:06 24.39877 89.71251 21009 ft 395 kts 327°
2026-05-08 12:07 24.42312 89.69839 21373 ft 397 kts 327°
2026-05-08 12:07 24.44729 89.68439 21722 ft 399 kts 327°
2026-05-08 12:07 24.47192 89.67009 22080 ft 402 kts 327°
2026-05-08 12:07 24.49666 89.65568 22422 ft 404 kts 327°
2026-05-08 12:08 24.52154 89.64117 22750 ft 406 kts 327°
2026-05-08 12:08 24.54661 89.62656 23087 ft 409 kts 327°
2026-05-08 12:08 24.57181 89.61186 23421 ft 411 kts 327°
2026-05-08 12:08 24.59717 89.59705 23711 ft 413 kts 326°
2026-05-08 12:09 24.62261 89.58222 23991 ft 415 kts 326°
2026-05-08 12:09 24.64820 89.56729 24282 ft 417 kts 326°
2026-05-08 12:09 24.67389 89.55232 24569 ft 419 kts 326°
2026-05-08 12:09 24.69973 89.53729 24866 ft 421 kts 326°
2026-05-08 12:10 24.72565 89.52221 25182 ft 422 kts 326°
2026-05-08 12:10 24.75166 89.50704 25486 ft 424 kts 326°
2026-05-08 12:10 24.77775 89.49179 25781 ft 426 kts 325°
2026-05-08 12:10 24.80397 89.47643 26067 ft 428 kts 325°
2026-05-08 12:11 24.83029 89.46102 26343 ft 430 kts 325°
2026-05-08 12:11 24.85672 89.44553 26614 ft 432 kts 325°
2026-05-08 12:11 24.88329 89.42993 26883 ft 433 kts 325°
2026-05-08 12:11 24.90999 89.41425 27147 ft 435 kts 324°
2026-05-08 12:12 24.93678 89.39851 27401 ft 437 kts 324°
2026-05-08 12:12 24.96365 89.38273 27655 ft 439 kts 324°
2026-05-08 12:12 24.99065 89.36689 27912 ft 441 kts 324°
2026-05-08 12:12 25.01782 89.35096 28161 ft 442 kts 324°
2026-05-08 12:13 25.04505 89.33500 28467 ft 443 kts 324°
2026-05-08 12:13 25.07196 89.31921 28739 ft 445 kts 324°
2026-05-08 12:13 25.09967 89.30292 28994 ft 446 kts 324°
2026-05-08 12:13 25.12673 89.28700 29229 ft 448 kts 324°
2026-05-08 12:14 25.15429 89.27075 29461 ft 450 kts 324°
2026-05-08 12:14 25.18193 89.25445 29683 ft 452 kts 324°
2026-05-08 12:14 25.20972 89.23805 29895 ft 453 kts 324°
2026-05-08 12:14 25.23756 89.22160 30098 ft 455 kts 324°
2026-05-08 12:15 25.26554 89.20510 30270 ft 456 kts 324°
2026-05-08 12:15 25.29358 89.18859 30449 ft 457 kts 324°
2026-05-08 12:15 25.32168 89.17204 30615 ft 458 kts 324°
2026-05-08 12:15 25.34989 89.15541 30786 ft 460 kts 324°
2026-05-08 12:16 25.37812 89.13872 30949 ft 461 kts 324°
2026-05-08 12:16 25.40637 89.12198 31105 ft 462 kts 324°
2026-05-08 12:16 25.43478 89.10514 31280 ft 462 kts 324°
2026-05-08 12:16 25.46308 89.08840 31501 ft 461 kts 324°
2026-05-08 12:17 25.49139 89.07168 31712 ft 461 kts 324°
2026-05-08 12:17 25.51963 89.05500 31919 ft 460 kts 324°
2026-05-08 12:17 25.54785 89.03830 32140 ft 460 kts 323°
2026-05-08 12:17 25.57601 89.02159 32347 ft 459 kts 323°
2026-05-08 12:18 25.60409 89.00488 32589 ft 458 kts 323°
2026-05-08 12:18 25.63210 88.98820 32821 ft 457 kts 323°
2026-05-08 12:18 25.66007 88.97156 33080 ft 456 kts 322°
2026-05-08 12:18 25.68808 88.95504 33307 ft 458 kts 325°
2026-05-08 12:19 25.71847 88.94282 33539 ft 474 kts 338°
2026-05-08 12:19 25.75178 88.93868 33771 ft 491 kts 353°
2026-05-08 12:19 25.78596 88.94337 33980 ft 500 kts
2026-05-08 12:19 25.81872 88.95713 34181 ft 510 kts 24°
2026-05-08 12:20 25.84780 88.97935 34384 ft 515 kts 32°
2026-05-08 12:20 25.87620 89.00347 34266 ft 513 kts 33°
2026-05-08 12:20 25.90426 89.02789 33924 ft 511 kts 34°
2026-05-08 12:20 25.93223 89.05250 33840 ft 514 kts 34°
2026-05-08 12:21 25.98872 89.10187 33747 ft 518 kts 33°
2026-05-08 12:21 26.01722 89.12645 33033 ft 518 kts 33°
2026-05-08 12:21 26.04575 89.15088 32379 ft 516 kts 33°
2026-05-08 12:22 26.07416 89.17516 31779 ft 514 kts 33°
2026-05-08 12:22 26.10230 89.19928 31353 ft 507 kts 33°
2026-05-08 12:22 26.13009 89.22315 30912 ft 501 kts 34°
2026-05-08 12:22 26.15743 89.24667 30472 ft 494 kts 34°
2026-05-08 12:23 26.18440 89.26992 30061 ft 487 kts 34°
2026-05-08 12:23 26.21100 89.29291 29560 ft 481 kts 34°
2026-05-08 12:23 26.22842 89.30800 29205 ft 477 kts 34°
2026-05-08 12:23 26.25444 89.33055 28686 ft 472 kts 34°
2026-05-08 12:24 26.28024 89.35287 28168 ft 467 kts 34°
2026-05-08 12:24 26.30572 89.37492 27648 ft 461 kts 34°
2026-05-08 12:24 26.33089 89.39673 27131 ft 456 kts 34°
2026-05-08 12:24 26.35584 89.41834 26617 ft 451 kts 34°
2026-05-08 12:25 26.38028 89.43952 26106 ft 445 kts 34°
2026-05-08 12:25 26.40458 89.46062 25591 ft 440 kts 34°
2026-05-08 12:25 26.42859 89.48146 25078 ft 435 kts 34°
2026-05-08 12:25 26.45233 89.50204 24554 ft 430 kts 34°
2026-05-08 12:26 26.47586 89.52245 24074 ft 425 kts 34°
2026-05-08 12:26 26.49903 89.54256 23587 ft 420 kts 34°
2026-05-08 12:26 26.52194 89.56243 23046 ft 415 kts 34°
2026-05-08 12:26 26.54464 89.58214 22479 ft 411 kts 34°
2026-05-08 12:27 26.56707 89.60168 21940 ft 407 kts 36°
2026-05-08 12:27 26.58932 89.62106 21384 ft 404 kts 36°
2026-05-08 12:27 26.61113 89.64007 20860 ft 400 kts 36°
2026-05-08 12:27 26.63295 89.65910 20378 ft 397 kts 36°
2026-05-08 12:28 26.65463 89.67801 19879 ft 393 kts 36°
2026-05-08 12:28 26.67627 89.69636 19392 ft 388 kts 31°
2026-05-08 12:28 26.69993 89.71022 18929 ft 382 kts 18°
2026-05-08 12:28 26.72525 89.71819 18456 ft 375 kts
2026-05-08 12:29 26.75104 89.72025 17968 ft 369 kts 355°
2026-05-08 12:29 26.77603 89.71661 17470 ft 361 kts 343°
2026-05-08 12:29 26.79961 89.70766 16994 ft 354 kts 332°
2026-05-08 12:29 26.82127 89.69499 16494 ft 350 kts 329°
2026-05-08 12:30 26.84271 89.68215 16042 ft 348 kts 329°
2026-05-08 12:30 26.86331 89.66804 15852 ft 348 kts 320°
2026-05-08 12:30 26.88127 89.64982 16406 ft 349 kts 311°
2026-05-08 12:30 26.89789 89.62991 16643 ft 350 kts 310°
2026-05-08 12:31 26.91427 89.61016 16795 ft 350 kts 310°
2026-05-08 12:31 26.93080 89.59015 16838 ft 350 kts 310°
2026-05-08 12:31 26.94736 89.57025 16837 ft 349 kts 313°
2026-05-08 12:31 26.96613 89.55394 16836 ft 335 kts 328°
2026-05-08 12:32 26.98698 89.54396 16837 ft 319 kts 342°
2026-05-08 12:32 27.00832 89.53996 16884 ft 303 kts 352°
2026-05-08 12:32 27.02860 89.53776 16890 ft 287 kts 351°
2026-05-08 12:32 27.04828 89.53548 16673 ft 280 kts 351°
2026-05-08 12:33 27.06752 89.53315 16256 ft 277 kts 351°
2026-05-08 12:33 27.08655 89.53083 15980 ft 274 kts 351°
2026-05-08 12:33 27.10546 89.52855 15991 ft 273 kts 352°
2026-05-08 12:33 27.12443 89.52629 16047 ft 274 kts 352°
2026-05-08 12:34 27.14343 89.52399 16051 ft 275 kts 350°
2026-05-08 12:34 27.16202 89.51978 15931 ft 270 kts 345°
2026-05-08 12:34 27.17980 89.51496 15771 ft 254 kts 345°
2026-05-08 12:34 27.19627 89.51028 15646 ft 236 kts 344°
2026-05-08 12:35 27.21168 89.50584 15531 ft 221 kts 344°
2026-05-08 12:35 27.22616 89.50167 15409 ft 208 kts 343°
2026-05-08 12:35 27.23975 89.49776 15312 ft 194 kts 344°
2026-05-08 12:35 27.25245 89.49412 15158 ft 184 kts 344°
2026-05-08 12:36 27.26468 89.49062 14923 ft 180 kts 344°
2026-05-08 12:36 27.27669 89.48720 14796 ft 178 kts 344°
2026-05-08 12:36 27.28874 89.48377 14677 ft 179 kts 344°
2026-05-08 12:36 27.30076 89.48033 14574 ft 178 kts 344°
2026-05-08 12:37 27.31279 89.47689 14460 ft 178 kts 344°
2026-05-08 12:37 27.32479 89.47350 14349 ft 178 kts 345°
2026-05-08 12:37 27.33677 89.47007 14227 ft 177 kts 344°
2026-05-08 12:37 27.34828 89.46517 14057 ft 177 kts 330°
2026-05-08 12:38 27.35876 89.45787 13739 ft 178 kts 324°
2026-05-08 12:38 27.36881 89.44906 12878 ft 197 kts 317°
2026-05-08 12:38 27.38065 89.43894 11665 ft 225 kts 330°
2026-05-08 12:38 27.39006 89.42874 12246 ft 163 kts 283°
2026-05-08 12:39 27.38923 89.41551 12532 ft 184 kts 248°
2026-05-08 12:39 27.38142 89.40281 12447 ft 223 kts 217°
2026-05-08 12:39 27.36680 89.39583 12778 ft 234 kts 184°
2026-05-08 12:39 27.35112 89.39914 13660 ft 235 kts 152°
2026-05-08 12:40 27.33801 89.41176 13763 ft 273 kts 127°
2026-05-08 12:40 27.32936 89.43137 14073 ft 290 kts 111°
2026-05-08 12:40 27.32422 89.45381 14488 ft 304 kts 94°
2026-05-08 12:40 27.32923 89.47664 15186 ft 311 kts 58°
2026-05-08 12:41 27.34667 89.49230 15116 ft 346 kts 18°
2026-05-08 12:41 27.37160 89.49807 14843 ft 385 kts
2026-05-08 12:41 27.39825 89.49276 15054 ft 399 kts 328°
2026-05-08 12:41 27.41650 89.46936 15048 ft 416 kts 288°
2026-05-08 12:42 27.41389 89.43890 14868 ft 391 kts 237°
2026-05-08 12:42 27.39379 89.41993 14608 ft 384 kts 200°
2026-05-08 12:42 27.36711 89.41547 14490 ft 389 kts 178°
2026-05-08 12:42 27.34127 89.42103 14353 ft 371 kts 159°
2026-05-08 12:43 27.31820 89.43238 14233 ft 354 kts 156°
2026-05-08 12:43 27.29716 89.44471 14101 ft 339 kts 145°
2026-05-08 12:43 27.28030 89.46275 13962 ft 325 kts 127°
2026-05-08 12:43 27.26996 89.48428 13837 ft 312 kts 109°
2026-05-08 12:44 27.26594 89.50767 13700 ft 299 kts 92°
2026-05-08 12:44 27.26798 89.53043 13568 ft 287 kts 75°
2026-05-08 12:44 27.27525 89.55085 13428 ft 276 kts 59°
2026-05-08 12:44 27.28660 89.56770 13271 ft 267 kts 45°
2026-05-08 12:45 27.30101 89.58040 12989 ft 262 kts 30°
2026-05-08 12:45 27.31763 89.58847 12621 ft 260 kts 15°
2026-05-08 12:45 27.33540 89.59150 12338 ft 255 kts 357°
2026-05-08 12:45 27.35143 89.58549 12212 ft 240 kts 324°
2026-05-08 12:46 27.36251 89.57280 12105 ft 214 kts 319°
2026-05-08 12:46 27.37412 89.56532 12264 ft 180 kts 341°
2026-05-08 12:46 27.38596 89.56164 12033 ft 175 kts 343°
2026-05-08 12:46 27.39725 89.55747 11787 ft 167 kts 342°
2026-05-08 12:47 27.40815 89.55377 11540 ft 161 kts 342°
2026-05-08 12:47 27.41791 89.54814 11291 ft 156 kts 322°
2026-05-08 12:47 27.42597 89.54032 11070 ft 150 kts 317°
2026-05-08 12:47 27.43297 89.53207 10889 ft 149 kts 302°
2026-05-08 12:48 27.43442 89.52012 10941 ft 160 kts 247°
2026-05-08 12:48 27.42760 89.51210 11536 ft 138 kts 194°
2026-05-08 12:48 27.42000 89.51299 11086 ft 9 kts 79°
2026-05-08 12:48 27.42006 89.51310 11057 ft 0 kts 92°
2026-05-08 12:49 27.42006 89.51312 11064 ft 0 kts 95°